Find Starlink 32862

NORAD ID: 62864 Int'l Des: 2025-022 Owner: SPXS Country: US Constellation: starlink operational
LEOCIRCULAR

Current View

Loading 3D Globe...

About Starlink 32862

Starlink 32862 (NORAD 62864) is a starlink constellation satellite (v2 mini) launched Feb 2, 2025 by SPXS of US. It operates in LEO, CIRCULAR orbit with a mass of 730.00 kg.

About Starlink 32862

Description loading...

Upcoming Passes

Passes for default location (London). Set your location on the main map for personalized predictions.

Altitude History

Loading altitude history...

Two-Line Element Set

1 62864U 25022L 26170.76568301 .00019957 00000-0 60007-3 0 9996
2 62864 53.1607 15.1135 0001675 100.3299 259.7892 15.34407218 77538
Epoch: Jun 19, 2026 • Age: 12 hours

Current Status

Altitude 467.3 km
Velocity 7.63 km/s
Sub-Earth Point -16.74°S, 155.57°W
Launch Date Feb 2, 2025
Age 1.3 years
Type internet

Technical Details

Classification Payload
Mass 730.00 kg
Dry Mass 700.00 kg
Total Mass 730.00 kg
Length 0.30 m
Diameter 4.10 m
Span 29.00 m
Shape Box + pan
Manufacturer SPXS
Bus Type Starlink V2M
Phase Status In Orbit
Owner/State SPXS/US

Most Searched